TimeHST,TemperatureF,Dew PointF,Humidity,Sea Level PressureIn,VisibilityMPH,Wind Direction,Wind SpeedMPH,Gust SpeedMPH,PrecipitationIn,Events,Conditions,WindDirDegrees,DateUTC
12:56 AM,64.9,57.9,78,30.09,10.0,ENE,19.6,25.3,N/A,,Clear,60,2013-02-17 10:56:00
1:56 AM,64.9,56.8,75,30.08,10.0,NE,21.9,26.5,N/A,,Partly Cloudy,50,2013-02-17 11:56:00
2:56 AM,63.9,55.9,75,30.08,10.0,NE,11.5,-,N/A,,Partly Cloudy,50,2013-02-17 12:56:00
3:56 AM,64.9,56.8,75,30.05,10.0,NE,17.3,-,N/A,,Clear,50,2013-02-17 13:56:00
4:56 AM,64.9,56.8,75,30.05,10.0,NE,18.4,23.0,N/A,,Clear,50,2013-02-17 14:56:00
5:56 AM,64.9,56.8,75,30.07,10.0,NE,16.1,-,N/A,,Clear,50,2013-02-17 15:56:00
6:56 AM,64.9,56.8,75,30.08,10.0,NE,25.3,32.2,N/A,,Clear,50,2013-02-17 16:56:00
7:45 AM,64.4,57.2,77,30.12,10.0,NE,25.3,32.2,N/A,,Clear,50,2013-02-17 17:45:00
7:56 AM,66.9,59.0,76,30.11,10.0,NE,23.0,33.4,N/A,,Clear,50,2013-02-17 17:56:00
8:50 AM,82.4,59.0,45,30.17,10.0,NNE,16.1,-,N/A,,Overcast,30,2013-02-17 18:50:00
8:56 AM,68.0,59.0,73,30.13,10.0,NNE,16.1,-,N/A,,Mostly Cloudy,30,2013-02-17 18:56:00
9:03 AM,68.0,59.0,73,30.18,10.0,NE,15.0,-,N/A,,Mostly Cloudy,40,2013-02-17 19:03:00
9:15 AM,71.6,59.0,64,30.18,10.0,NE,17.3,-,N/A,,Scattered Clouds,50,2013-02-17 19:15:00
9:45 AM,71.6,59.0,64,30.18,10.0,NE,17.3,-,N/A,,Scattered Clouds,50,2013-02-17 19:45:00
9:56 AM,68.9,57.9,68,30.14,10.0,NE,13.8,-,N/A,,Mostly Cloudy,40,2013-02-17 19:56:00
10:45 AM,69.8,57.2,64,30.19,10.0,NE,13.8,-,N/A,,Mostly Cloudy,40,2013-02-17 20:45:00
10:56 AM,71.6,60.8,69,30.19,10.0,NNE,12.7,-,N/A,,Mostly Cloudy,30,2013-02-17 20:56:00
11:45 AM,71.6,60.8,69,30.19,10.0,NNE,12.7,-,N/A,,Mostly Cloudy,30,2013-02-17 21:45:00
11:56 AM,72.0,61.9,70,30.11,10.0,NE,25.3,31.1,0.00,Rain,Light Rain,40,2013-02-17 21:56:00
12:56 PM,75.9,59.9,57,30.08,10.0,NE,28.8,33.4,0.00,,Partly Cloudy,40,2013-02-17 22:56:00
1:56 PM,75.2,59.0,57,30.08,-9999.0,ENE,36.8,-,N/A,,Clear,60,2013-02-17 23:56:00
2:56 PM,73.9,56.8,55,30.02,-9999.0,NE,39.1,46.0,N/A,,Clear,40,2013-02-18 00:56:00
3:56 PM,73.9,57.9,57,30.02,-9999.0,NE,34.5,42.6,N/A,,Clear,50,2013-02-18 01:56:00
4:56 PM,72.0,57.9,61,30.03,-9999.0,NE,35.7,43.7,N/A,,Clear,50,2013-02-18 02:56:00
5:56 PM,68.9,56.8,65,30.04,-9999.0,NE,35.7,44.9,N/A,,Clear,50,2013-02-18 03:56:00
6:56 PM,66.9,57.9,73,30.09,-9999.0,ENE,20.7,43.7,N/A,,Clear,70,2013-02-18 04:56:00
7:56 PM,66.2,57.2,73,30.15,-9999.0,ENE,24.2,-,N/A,,Clear,60,2013-02-18 05:56:00
8:56 PM,66.9,56.8,70,30.12,-9999.0,ENE,18.4,28.8,N/A,,Clear,60,2013-02-18 06:56:00
9:56 PM,65.8,56.8,73,30.13,-9999.0,NE,27.6,43.7,N/A,,Clear,50,2013-02-18 07:56:00
10:56 PM,64.9,59.0,81,30.09,-9999.0,NE,32.2,44.9,N/A,,Clear,40,2013-02-18 08:56:00
11:56 PM,64.9,59.0,81,30.10,-9999.0,NE,32.2,36.8,N/A,,Clear,50,2013-02-18 09:56:00